ARIANE 5 R/B, 40148

Orbit data source: Space-Track

ARIANE 5 R/B, 40148 is space debris in HEO originally from a launch on Thu, 11 Sep 2014 UTC launched from the French Guiana (FRGUI). Debris objects in space refer to the collection of defunct objects orbiting the Earth. Examples of debris include non-operational satellites, rocket bodies, and fragments generated from explosions, collisions, or faulty payload assembly.

Loading next visibility...
Identifier
40148, 2014-054C
Orbit
HEO
Country
Flag of FRFR
Related business
Manufacturer
ADS/LV
Mission
Spacecraft
Bus & Motor
ESC-A, Unknown motor
Mass
~5,000 kg wet, ~5,000 kg dry
Launch date (UTC)
2014-09-11 (11 years ago)
Launch vehicle
Unknown
Launch site
French Guiana (FRGUI)
Object type
Payload
Rocket body
Debris
Shape & HBR
Cyl + 1 Nozzle, 3.5 m
Radar Cross Section
41.627 m², Large (>1 m²)

Expand to show TLE details & history
Last TLE update: 15 hours ago

TLE from 15 hours ago
0 ARIANE 5 R/B
1 40148U 14054C   26061.73149079  .00009142  00000-0  20400-2 0  9990
2 40148   5.7498  83.8145 7040234 268.0419  17.3294  2.59286206101065
Epoch: 2026-03-02T17:33Z
TLE epoch observation values (Epoch: 2026-03-02T17:33:20.804Z)
Latitude
-0.00001°
Longitude
20.38596°
Altitude
5,226.192 km
Speed
7.133 km/s
True Right ascension
05h 36m 58s
True Declination
0° 00' 00"
Sunlit
Object was in daylight at epoch
Visualization orbit readout
Latitude
Unknown
Longitude
Unknown
Altitude
Unknown
Speed
Unknown
Apparent Right ascension
Unknown
Apparent Declination
Unknown
Sunlit
N/A
Visualization observer readout
Local Sidereal Time
12:39:40
Azimuth
Unknown
Elevation
Unknown
Doppler factor
Unknown
Orbital elements
Apogee altitude
31,769.098 km
Perigee altitude
247.763 km
Semi-major axis
22,386.567 km
Eccentricity
0.70402
Inclination
5.7498°
RAAN
83.8145°
Arg. of periapsis
268.0419°
True anomaly
91.98008°
Mean anomaly
17.3294°
Eccentric anomaly
46.67289°
Mean motion
0.64798 °/min
Orbital period
555.57 mins
BSTAR
0.00204
Loading maneuver chart data...
Computing Atmospheric mass density...
Loading historical data...
Loading historical data...
Loading historical data...
Loading historical data...
Loading historical data...
Loading historical data...
Loading historical data...
Other satellites on launch #54 in the year 2014 (2014-09-11 UTC)

Documentation

Showing up to 5 results
|